Terminal Aerodrome Forecast
Issued by NWS

Home | Current Version | Previous Version | Graphics & Text | Print | Product List | Glossary On
Versions: 1 2 3 4 5 6 7 8 9 10 11 12 13 14 15 16 17 18 19 20 21
000
FTUS45 KGGW 171100
TAFGDV
TAF
KGDV 171127Z 1712/1812 VRB05KT P6SM SCT250 BKN300
     FM171800 14014KT P6SM SCT110 BKN200
     FM180000 13009KT P6SM SCT200
      AMD LTD TO CLD VIS AND WIND=

USA.gov is the U.S. government's official web portal to all federal, state and local government web resources and services.